Volver al catálogo

GEESAT 5-03

ActivoComunicacionesLEO
NORAD 65552·PAYLOAD·🇨🇳 China

Lanzado Sep 8, 2025 desde Yellow Sea Launch Area

Loading…

Próximos Pases (próximas 24 horas)

TLE

ActualizadoSource: Space-Track

Época: Sep 14, 2026, 06:04 UTC

1 65552U 25201C   26257.25313847  .00001188  00000-0  16673-3 0  9992
2 65552  49.9886 346.0975 0011054 243.7912 116.1890 14.84399476 55025

Sigue GEESAT 5-03 en tiempo real con AllMySat

Download on the App Store